Home   Weather   Tampa   Past weeks
Flag for USA

Past Weather in Tampa, Florida, USA — February 2018

Now
79 °F

Overcast.


Feels Like: 81 °F
Forecast: 89 / 71 °F
Wind: 12 mph from East

Location: Tampa, Peter O Knight Airport

Current Time: Sep 20, 2019 at 11:06:17 pm

Latest Report: Sep 20, 2019 at 10:35 pm


Visibility: 10 mi

Pressure: 30.13 "Hg

Humidity: 65%

Dew Point: 66 °F

Location of TampaLocation

February 2018 Weather in Tampa — Graph

°F

High & Low Weather Summary for February 2018

 TemperatureHumidityPressure
High86 °F (Feb 19, 3:35 pm)100% (Feb 1, 6:55 am)30.44 "Hg (Feb 1, 6:55 am)
Low50 °F (Feb 1, 6:55 am)40% (Feb 19, 3:35 pm)29.97 "Hg (Feb 4, 2:35 pm)
Average72 °F74%30.23 "Hg
* Reported Feb 1 12:15 am — Feb 28 11:35 pm, Tampa. Weather by CustomWeather, © 2019

Note: Actual official high and low records may vary slightly from our data, if they occured in-between our weather recording intervals... More about our weather records

Advertising

Tampa Weather History for February 1, 2018

Scroll right to see more
 ConditionsComfort  
Time TempWeatherWind HumidityBarometerVisibility
12:15 am
Thu, Feb 1
55 °FClear.8 mph82%30.22 "Hg10 mi
12:35 am55 °FClear.8 mph82%30.22 "Hg10 mi
12:55 am55 °FClear.8 mph82%30.21 "Hg10 mi
1:15 am55 °FClear.6 mph82%30.21 "Hg10 mi
1:35 am55 °FClear.6 mph82%30.21 "Hg10 mi
1:55 am55 °FClear.6 mph82%30.20 "Hg10 mi
2:15 am54 °FClear.5 mph88%30.21 "Hg10 mi
2:35 am54 °FClear.7 mph88%30.20 "Hg10 mi
2:55 am54 °FClear.5 mph88%30.20 "Hg10 mi
3:35 am52 °FClear.No wind94%30.19 "Hg10 mi
3:55 am52 °FClear.3 mph94%30.20 "Hg10 mi
4:15 am52 °FClear.3 mph94%30.20 "Hg10 mi
4:35 am52 °FClear.5 mph94%30.20 "Hg10 mi
4:55 am52 °FClear.No wind94%30.20 "Hg10 mi
5:15 am52 °FClear.No wind94%30.20 "Hg10 mi
5:35 am52 °FClear.No wind94%30.20 "Hg10 mi
5:55 am52 °FClear.No wind94%30.21 "Hg10 mi
6:35 am52 °FClear.5 mph94%30.22 "Hg10 mi
6:55 am50 °FClear.5 mph100%30.23 "Hg10 mi
7:55 am52 °FSunny.5 mph100%30.24 "Hg10 mi
8:35 am55 °FSunny.5 mph88%30.25 "Hg10 mi
8:55 am57 °FSunny.N/A82%30.25 "Hg10 mi
9:15 am59 °FSunny.3 mph77%30.26 "Hg10 mi
9:35 am61 °FSunny.3 mph72%30.27 "Hg10 mi
9:55 am64 °FScattered clouds.3 mph68%30.27 "Hg10 mi
10:15 am66 °FPartly sunny.3 mph60%30.28 "Hg10 mi
10:35 am68 °FPartly sunny.No wind60%30.28 "Hg10 mi
10:55 am68 °FPartly sunny.3 mph60%30.28 "Hg10 mi
11:15 am68 °FBroken clouds.No wind60%30.27 "Hg10 mi
11:35 am68 °FPartly sunny.No wind60%30.27 "Hg10 mi
11:55 am70 °FPartly sunny.No wind57%30.25 "Hg10 mi
12:15 pm70 °FPartly sunny.3 mph57%30.24 "Hg10 mi
12:35 pm72 °FScattered clouds.3 mph53%30.24 "Hg10 mi
12:55 pm72 °FScattered clouds.3 mph53%30.23 "Hg10 mi
1:15 pm72 °FScattered clouds.No wind53%30.21 "Hg10 mi
1:35 pm72 °FScattered clouds.3 mph53%30.20 "Hg10 mi
1:55 pm72 °FSunny.5 mph53%30.19 "Hg10 mi
2:15 pm72 °FScattered clouds.No wind53%30.18 "Hg10 mi
2:35 pm72 °FScattered clouds.3 mph53%30.18 "Hg10 mi
2:55 pm72 °FScattered clouds.5 mph53%30.17 "Hg10 mi
3:35 pm72 °FScattered clouds.3 mph50%30.17 "Hg10 mi
3:55 pm72 °FPartly sunny.No wind53%30.16 "Hg10 mi
4:15 pm72 °FScattered clouds.3 mph50%30.16 "Hg10 mi
4:35 pm72 °FScattered clouds.3 mph50%30.16 "Hg10 mi
4:55 pm72 °FSunny.No wind50%30.16 "Hg10 mi
5:15 pm70 °FSunny.No wind57%30.16 "Hg10 mi
5:35 pm70 °FSunny.3 mph57%30.16 "Hg10 mi
5:55 pm68 °FSunny.3 mph60%30.16 "Hg10 mi
6:15 pm66 °FClear.3 mph68%30.17 "Hg10 mi
6:35 pm68 °FClear.3 mph60%30.17 "Hg10 mi
6:55 pm66 °FClear.3 mph60%30.18 "Hg10 mi
7:35 pm64 °FClear.No wind64%30.18 "Hg10 mi
7:55 pm64 °FClear.No wind64%30.19 "Hg10 mi
8:35 pm63 °FPassing clouds.No wind68%30.20 "Hg10 mi
8:55 pm63 °FClear.3 mph68%30.21 "Hg10 mi
9:15 pm63 °FClear.No wind64%30.22 "Hg10 mi
9:35 pm63 °FClear.No wind64%30.22 "Hg10 mi
9:55 pm63 °FClear.No wind64%30.21 "Hg10 mi
10:15 pm61 °FClear.3 mph72%30.21 "Hg10 mi
10:35 pm63 °FClear.No wind68%30.21 "Hg10 mi
10:55 pm61 °FClear.No wind72%30.20 "Hg10 mi
11:15 pm61 °FClear.5 mph72%30.21 "Hg10 mi
11:35 pm61 °FClear.No wind72%30.20 "Hg10 mi
11:55 pm59 °FClear.3 mph77%30.20 "Hg10 mi
Weather by CustomWeather, © 2019

See weather overview